761  
ASUS45 KTFX 180110  
RWRMT  
MONTANA REGIONAL WEATHER ROUNDUP  
NATIONAL WEATHER SERVICE GREAT FALLS MT  
700 PM MDT WED AUG 17 2022  
 
NOTE: "FAIR" INDICATES FEW OR NO CLOUDS BELOW 12,000 FEET WITH NO  
SIGNIFICANT WEATHER AND/OR S TO VISIBILITY
.  
 
MTZ001>007-043-180200-  
WEST OF THE DIVIDE  
 
CITY SKY/WX TMP DP RH WIND PRES REMARKS
 
KALISPELL SUNNY 90 38 16 E3 30.06F  
MISSOULA SUNNY 97 37 12 N10 30.04F HX 92  
BUTTE SUNNY 85 30 13 E16G23 30.23F  
ANACONDA N/A 84 39 20 N6 30.19F  
DEER LODGE N/A 88 39 18 NE12 30.20F  
HAMILTON FAIR 88 48 25 N7 30.06F  
LIBBY N/A 93 37 14 W6 30.02F  
MULLAN PASS SUNNY 81 22 11 MISG 30.29F  
PLAINS N/A 99 N/A N/A CALM 30.01F  
THOMPSON FALLS N/A 97 43 15 W8 30.03F HX 92  

 
 
MTZ008-052>055-180200-  
SOUTHWEST MONTANA  
 
CITY SKY/WX TMP DP RH WIND PRES REMARKS
 
BOZEMAN SUNNY 88 35 15 NW7 30.15F  
DILLON SUNNY 86 40 19 NE10 30.17S  
ENNIS SUNNY 86 28 12 N16 30.24F  
THREE FORKS N/A 91 39 16 N7 30.11F  
TWIN BRIDGES FAIR 91 28 10 N13 30.16S  
W YELLOWSTONE SUNNY 82 34 17 CALM 30.28S  

 
 
MTZ009-010-012-014-046-048-049-054-180200-  
EAST SLOPES AND CENTRAL MONTANA  
 
CITY SKY/WX TMP DP RH WIND PRES REMARKS
 
CUT BANK SUNNY 84 45 25 NE7 30.20F  
GREAT FALLS SUNNY 87 43 21 NE8 30.17F  
HELENA SUNNY 90 44 20 N9 30.13F  
AUGUSTA FAIR 83 41 22 NE9 30.21S  
BOWMANS CORNER FAIR 82 42 24 N13 30.15F  
CHOTEAU N/A 84 43 23 NE8 30.19F  
FAIRFIELD FAIR 85 42 21 SE8 30.15F  

 
 
MTZ011-013-016-021-045-047-050-051-180200-  
NORTH CENTRAL MONTANA  
 
CITY SKY/WX TMP DP RH WIND PRES REMARKS
 
HAVRE MOSUNNY 90 46 21 N13G21 30.10F  
LEWISTOWN SUNNY 86 44 23 N6 30.19S  
CHINOOK N/A 88 48 25 N9 30.11S  
DENTON FAIR 87 39 18 NW8 30.15F  
N BAR RANCH FAIR 82 41 23 N12 30.21S  
STANFORD FAIR 83 40 21 N9 30.20F  
WINIFRED FAIR 87 38 18 NW7G20 30.14S  

 
 
MTZ017>020-022>027-061-062-180200-  
NORTHEAST MONTANA  
 
CITY SKY/WX TMP DP RH WIND PRES REMARKS
 
GLASGOW SUNNY 91 47 21 N20G30 30.02S  
CULBERTSON N/A 77 63 61 VRB7G14 29.96S  
GLENDIVE MOSUNNY 88 55 32 NW7 30.00F  
JORDAN N/A 92 44 19 N15 30.05S  
MALTA SUNNY 90 46 22 N16G24 30.04S  
PLENTYWOOD SUNNY 77 57 50 NE6G12 30.02R  
SIDNEY MOCLDY 88 54 31 CALM 29.96F  
WOLF POINT SUNNY 91 45 20 N18 29.99S  

 
 
MTZ028>42-056>058-180200-  
SOUTHCENTRAL AND SOUTHEAST MONTANA  
 
CITY SKY/WX TMP DP RH WIND PRES REMARKS
 
BAKER PTCLDY 84 50 30 NW10 30.05F  
BIG TIMBER SUNNY 86 37 17 N10G16 30.20S  
BILLINGS SUNNY 89 42 19 NE12 30.13S  
HARDIN N/A N/A N/A N/A MISG N/A  
LAUREL N/A 90 39 17 NE15 30.12S  
LIVINGSTON MOSUNNY 87 40 19 E16 30.18S  
MILES CITY SUNNY 91 47 21 N5 30.03F  
ROUNDUP N/A 90 43 19 MISG 30.04S  

 
 
REGIONAL REPORTS...DAKOTAS/MN  
 
CITY SKY/WX TMP DP RH WIND PRES REMARKS
 
WILLISTON TSTM 65 61 87 E7G25 30.06R VSB 1/2  
MINOT MOCLDY 78 68 71 NE5 29.98S  
DICKINSON PTCLDY 84 56 38 SW8 29.99F  
BEACH N/A N/A N/A N/A MISG N/A  
BOWMAN FAIR 77 57 50 SE3 30.04F  
CROSBY FAIR 75 63 64 SE7G15 29.99S  
GLEN ULLIN FAIR 84 50 30 CALM 29.97F  
HETTINGER PTCLDY 82 52 35 S6 30.03F  
TIOGA FAIR 73 63 68 E3 30.04R  
WATFORD CITY FAIR 82 59 44 CALM 29.99S  
BISMARCK MOCLDY 87 56 34 CALM 29.96F  
GRAND FORKS MOCLDY 82 64 54 E5 29.94F  
FARGO PTCLDY 79 67 66 N3 29.95F  
BUFFALO SD N/A 78 54 43 S9 30.03F  
RAPID CITY MOCLDY 74 55 51 E7 30.11R  
INTL FALLS PTCLDY 71 62 73 SW3 29.98F  
DULUTH MOCLDY 65 60 84 W8 30.05R  
MINNEAPOLIS CLOUDY 72 63 73 S7 30.05F  

 
 
REGIONAL REPORTS...WY/CO/ID/WA/OR  
 
CITY SKY/WX TMP DP RH WIND PRES REMARKS
 
BUFFALO WY SUNNY 85 41 21 NW21G30 30.19S  
CODY SUNNY 82 38 20 N13 30.21R  
GILLETTE MOSUNNY 82 48 30 E15 30.11R  
POWELL FAIR 84 27 12 N17G23 30.20S  
SHERIDAN SUNNY 88 41 19 NW17 30.12S  
YELLOWSTONE LA N/A 65 50 58 NW3 30.42F  
BOISE SUNNY 100 36 11 NW8 29.94F HX 94  
COUER D'ALENE SUNNY 95 44 17 N7 30.02F HX 91  
IDAHO FALLS SUNNY 96 30 9 CALM 30.12F HX 90  
SALMON CLOUDY 84 61 45 SW3 30.05F  
SPOKANE SUNNY 96 40 14 NE9 30.02F HX 92  
SEATTLE MOSUNNY 87 56 34 N10 29.91F  
PORTLAND CLOUDY 95 62 33 NW6 29.82S HX 96  

 
 
OTHER REPORTS  
 
CITY SKY/WX TMP DP RH WIND PRES REMARKS
 
ATLANTA CLOUDY 76 68 76 SW5 29.98R  
ANCHORAGE LGT RAIN 57 55 93 N6 29.43R  
BOSTON MOCLDY 70 54 56 W9 29.88S  
CHICAGO MOCLDY 73 58 59 NE9 30.07F  
FAIRBANKS PTSUNNY 76 44 32 W7 29.35S  
HOUSTON MOCLDY 89 75 63 S9 29.90S HX 99  
LAS VEGAS NV PTSUNNY 98 59 27 S9 29.85S HX 98  
PHOENIX AZ PTSUNNY 99 60 27 NW15G24 29.74F HX 99  
SALT LAKE CITY MOSUNNY 97 42 15 NW10 30.02F HX 93  
SAN DIEGO MOSUNNY 77 66 68 NW6 29.89S  
SAN FRANCISCO MOSUNNY 66 56 70 NW21 29.86S  
WASHINGTON DUL MOCLDY 70 60 70 NE10 30.00R  

 
 
REGIONAL REPORTS...ALBERTA  
 
CITY SKY/WX TMP DP RH WIND PRES REMARKS
 
CALGARY MOSUNNY 79 50 36 E9 30.22S  
CARDSTON N/A 81 48 32 NE8 N/A  
CROWSNEST PASS N/A 77 50 38 MISG N/A  
DEL BONITA N/A 79 50 36 NE9 N/A  
FORT MCMURRAY MOSUNNY 81 52 36 NW6 30.06F  
HIGH LEVEL MOSUNNY 82 54 36 S5 30.02F  
LETHBRIDGE SUNNY 82 50 32 E7 30.18F  
MEDICINE HAT SUNNY 86 48 26 N13 30.13F  
MILK RIVER N/A 81 48 32 N8 N/A  
PINCHER CREEK SUNNY 81 48 32 SE7 30.21F  
RAYMOND N/A 82 46 28 N5 N/A  
WATERTON GATE N/A 79 48 34 E8 N/A  
FORT SMITH NWT MOSUNNY 81 54 39 W7 30.03S  

 
 
REGIONAL REPORTS...SASKATCHEWAN  
 
CITY SKY/WX TMP DP RH WIND PRES REMARKS
 
ASSINIBOIA N/A 82 48 30 N13 N/A  
CORONACH N/A 84 46 26 NW16 N/A  
CYPRESS HILLS N/A 75 43 31 NW8 N/A  
ESTEVAN MOCLDY 77 63 61 E7 29.98F  
MOOSE JAW N/A 73 55 53 NE5 N/A  
PRINCE ALBERT PTSUNNY 73 63 68 NW6 30.07R  
REGINA PTSUNNY 73 61 64 SE2 30.04R  
ROCKGLEN N/A 81 45 28 N16G23 N/A  
SASKATOON MOSUNNY 77 57 50 NW10 30.07S  
SWIFT CURRENT SUNNY 81 48 32 N20G30 30.10S  
URANIUM CITY N/A 75 61 60 E2 N/A  
VAL MARIE N/A 84 41 21 N18 N/A  

 
 
 
CLICK HERE TO GO TO PREVIOUS BULLETINS.

The Nexlab MT Page Main Text Page